Regional Weather Roundup
Issued by NWS

Home | Current Version | Previous Version | Graphics & Text | Print | Product List | Glossary On
Versions: 1 2 3 4 5 6 7 8 9 10 11 12 13 14 15 16 17 18 19 20 21 22 23 24 25 26
000
ASUS45 KBOU 170810
RWRCO

WEATHER ROUNDUP FOR COLORADO
NATIONAL WEATHER SERVICE DENVER/BOULDER CO
100 AM MST WED JAN 17 2018

NOTE: "FAIR" INDICATES FEW OR NO CLOUDS BELOW 12000 FEET WITH NO
SIGNIFICANT WEATHER AND/OR OBSTRUCTIONS TO VISIBILITY.

COZ001>005-013-030-031-170900-
...NORTHWEST COLORADO...

CITY           SKY/WX    TMP DP  RH WIND       PRES   REMARKS
CRAIG          FAIR       6  -2  69 CALM      30.36F
HAYDEN         FAIR      12   1  61 E15       30.37S WCI  -4
MEEKER         FAIR      15   9  76 NE5       30.35F WCI   8
RABBIT EARS PA FAIR      14   7  73 W10G21    30.29F WCI   1
STEAMBOAT SPGS FAIR       4   0  83 CALM      30.37S
WALDEN         FAIR       1  -8  66 SE6       30.32S WCI -10
$$

COZ006>008-011-170900-
...WEST CENTRAL VALLEYS...

CITY           SKY/WX    TMP DP  RH WIND       PRES   REMARKS
GRAND JUNCTION FAIR      22  14  71 E6        30.37F WCI  14
MONTROSE       FAIR      18  12  77 S9        30.40F WCI   7
EAGLE          NOT AVBL
RIFLE          FAIR      18  12  77 CALM      30.40F
DELTA          FAIR      21  12  68 NE7       30.40F WCI  12
NUCLA          FAIR      23  10  58 E6        30.40S WCI  16
$$

COZ017>023-064>068-170900-
...SOUTHWEST COLORADO...

CITY           SKY/WX    TMP DP  RH WIND       PRES   REMARKS
DURANGO        FAIR      18  15  88 NE3       30.34F
CORTEZ         FAIR      14  13  95 E6        30.36F WCI   5
PAGOSA SPRINGS FAIR      19  16  90 CALM      30.34F
TELLURIDE      FAIR      18   3  52 SE8       30.36F WCI   7
WOLF CREEK PAS FAIR      21 -17  18 CALM      30.37F
$$

COZ009-010-012-014-032>034-037-058>063-170900-
...CENTRAL COLORADO...

CITY           SKY/WX    TMP DP  RH WIND       PRES   REMARKS
ASPEN          FAIR      12  -2  53 SW8       30.33F WCI   0
BUENA VISTA    FAIR      10  -1  61 CALM      30.31S
COPPER MTN     NOT AVBL
BERTHOUD PASS  FAIR      12   1  62 NW28      30.27F WCI  -9
COTTONWOOD PAS   N/A     32 -15  12 NW7       30.28S WCI  26
GUNNISON       FAIR       3  -2  79 MISG      30.40S
KREMMLING      FAIR       1  -4  78 CALM      30.43S
LEADVILLE      FAIR       8 -12  39 NE10      30.30R WCI  -6
MONARCH PASS   FAIR      14   0  52 SW21      30.40F WCI  -4
SALIDA         FAIR      22   5  49 NW10      30.37S WCI  11
SUNLIGHT       FAIR      18 -15  23 W8        30.38S WCI   7
WILKERSON PASS FAIR      23 -24  11 NW8       30.29F WCI  14
$$

COZ069>075-170900-
...SAN LUIS VALLEY/SANGRE DE CRISTO MOUNTAINS...

CITY           SKY/WX    TMP DP  RH WIND       PRES   REMARKS
ALAMOSA        FAIR       2  -2  83 N3        30.35F
DEL NORTE      FAIR       6   2  83 W7        30.35F WCI  -5
LA VETA PASS   FAIR      16  10  79 SW30        N/A  WCI  -4
SAGUACHE       FAIR       7   3  85 NW8       30.36S WCI  -6
$$

COZ035-036-038>040-170900-
...NORTHERN COLORADO FRONT RANGE...

CITY           SKY/WX    TMP DP  RH WIND       PRES   REMARKS
DENVER INTL AP FAIR      18   6  59 SW6       30.20F WCI  10
DMNS CITY PARK NOT AVBL
AURORA         CLEAR     22   3  44 S6        30.19F WCI  14
FRONT RANGE AP FAIR      20   9  62 S8        30.20F WCI  11
ERIE MUNI ARPT FAIR      11   8  90 CALM      30.28S
BOULDER MUN AP FAIR      18  14  86 CALM      30.20F
CENTENNIAL     FAIR      23   4  44 SE7       30.18F WCI  15
BROOMFIELD     FAIR      23  14  68 CALM      30.19F
FORT COLLINS   FAIR       9   6  88 CALM      30.22F
LONGMONT       FAIR      12   7  80 CALM      30.24F
$$

COZ041-046-047-076>085-087-088-170900-
...PIKES PEAK/PALMER DIVIDE AND SOUTHERN FOOTHILLS...

CITY           SKY/WX    TMP DP  RH WIND       PRES   REMARKS
COLO. SPRINGS  FAIR      13   5  70 N7        30.23F WCI   3
A. F. ACADEMY  FAIR      11   3  70 N7        30.21F WCI   0
SCHRIEVER AFB  FAIR      17   9  70 CALM      30.23F
CHEYENNE MTN   FAIR      28   2  33 CALM      30.15F
ELLICOTT         N/A    N/A N/A N/A N5          N/A
FALCON         FAIR      21   3  46 W5        30.22F WCI  14
FORT CARSON    FAIR      14   6  69 N9        30.22F WCI   2
LIMON          FAIR       1  -3  83 CALM      30.24F
MONUMENT HILL  FAIR      21   3  45 S13       30.21F WCI   9
CANON CITY     FAIR      25  14  63 W12       30.23F WCI  14
WALSENBURG     FAIR      16  12  86 CALM      30.23F
TRINIDAD       FAIR      25  16  68 W17       30.25F WCI  12
$$

COZ042>045-048>051-090-091-170900-
...NORTHEAST COLORADO...

CITY           SKY/WX    TMP DP  RH WIND       PRES   REMARKS
GREELEY ARPT   FAIR       6   2  83 W5        30.24F WCI  -3
AKRON          FAIR      18   6  59 SW8       30.22F WCI   8
BURLINGTON     FAIR      12   2  64 SW12      30.29F WCI  -2
WRAY           FAIR      12   1  62 W5        30.30F WCI   4
YUMA           FAIR       9   1  72 SW7       30.25F WCI  -3
STERLING       FAIR       5   0  78 SW3       30.26S
HOLYOKE        FAIR       5   0  78 W7        30.28F WCI  -7
FORT MORGAN    FAIR       5  -2  71 W3        30.24F
$$

COZ086-089-092>099-170900-
...SOUTHEAST COLORADO...

CITY           SKY/WX    TMP DP  RH WIND       PRES   REMARKS
PUEBLO         FAIR      12   7  80 CALM      30.28F
LA JUNTA       FAIR       9  -2  61 NW9       30.31F WCI  -4
LAMAR          FAIR       2  -6  69 CALM      30.33F
SPRINGFIELD      N/A      8   3  80 W5        30.29F WCI   0
$$




USA.gov is the U.S. government's official web portal to all federal, state and local government web resources and services.